Погода в 5-х Горках

Россия / Московская область     55°54′09″N   37°16′42″E
темп.,
°C
ветер,
м/с
пор.,
м/с
влажн.,
%
обл.,
%
осадки,
мм/ч
давл.,
гПа
погр.,
м
13 мая, чт
чт1300:00+13юв5994100 0.3 1018771
03:00+8ю259711 0.4 1019124
06:00+8юв24959 0.0 1019157
09:00+12юв357112 0.0 1019521
12:00+16вюв475377 0.0 10171267
15:00+14ююв3870100 0.2 1016674
18:00+15ююв486795 0.0 10141133
21:00+11ююв389074 0.1 1015223
14 мая, пт
пт1400:00+10ю379657 0.0 1015160
03:00+9ююв249546 0.0 101669
06:00+10ююв269277 0.0 1017185
09:00+14ююв4671100 0.0 1017531
12:00+18ююв575657 0.0 10161397
15:00+20ююв575537 0.0 10151763
18:00+17вюв487765 0.8 1013548
21:00+15юв1395100 16.3 101198
15 мая, сб
сб1500:00+14юв399790 2.1 1010243
03:00+13юв499770 2.3 1009205
06:00+14юв4109718 0.0 1009306
09:00+18ююв4685100 0.0 1009578
12:00+21ю5867100 0.3 10081297
15:00+21ююз610586 0.8 10071960
18:00+18ююз610753 0.9 10081072
21:00+14ююз6129110 1.5 1009628
16 мая, вс
вс1600:00+13ююз5139424 0.1 1010518
03:00+12юз4129668 0.1 1012385
06:00+12ююз399586 0.0 1013309
09:00+16ююз46762 0.0 1013676
12:00+19ююз575992 0.1 10131655
15:00+19юз57612 0.9 10141336
18:00+19юз46675 0.3 10131002
21:00+14юз22870 0.3 101518
17 мая, пн
пн1700:00+13зюз119013 0.0 101510
03:00+12юв1191100 0.0 101610
06:00+13юв248774 0.0 1016106
09:00+18юв3569100 0.0 1016418
12:00+22юв465587 0.0 10151111
15:00+25юв6851100 0.0 10131643
18:00+23юв596414 0.0 1011892
21:00+19юв5128069 0.4 1011369